User: anonymous   Login
Location: Elstree
(51.6403°N, 0.2969°W)
Time: 21:49:38
(UTC+00:00)
Language:

Okean 1-7 - Orbit

View from above orbital plane
View from above orbital plane
View from above satellite
View from above satellite

Ground track
Ground track

The orbit data is extracted from the following two-line orbital elements,

1 23317U 94066A   21135.08988449  .00000238  00000-0  23215-4 0  9993
2 23317  82.5398 214.9997 0019778   8.7339 351.4219 14.87915180438235
Epoch (UTC): 15 May 2021 02:09:26
Eccentricity: 0.0019778
inclination: 82.5398°
perigee height: 590 km
apogee height: 618 km
right ascension of ascending node: 214.9997°
argument of perigee: 8.7339°
revolutions per day: 14.87915180
mean anomaly at epoch: 351.4219°
orbit number at epoch: 43823

The dashed part of the orbit path shows where the satellite is in the earth's shadow,  

DLR